Cleveland, OH

9:38 PM EST on February 26, 2017 (GMT -0500)
Burke Lakefront

Weather History for KBKL - January, 2005

Change the Weather History Date:

Tuesday, January 18, 2005

  Actual Average Record
Temperature  
Mean Temperature 16 °F -  
Max Temperature 19 °F 30 °F 46 °F (1999)
Min Temperature 14 °F 20 °F 5 °F (1997)
Degree Days  
Heating Degree Days 48    
Moisture  
Dew Point 4 °F    
Average Humidity 59    
Maximum Humidity 73    
Minimum Humidity 45    
Precipitation  
Precipitation 0.00 in - - ()
Sea Level Pressure  
Sea Level Pressure 30.67 in    
Wind  
Wind Speed 13 mph (WSW)    
Max Wind Speed 21 mph    
Max Gust Speed 28 mph    
Visibility 7 miles    
Events Snow    
Averages and records for this station are not official NWS values.
T = Trace of Precipitation, MM = Missing Value Source: NWS Daily Summary

Daily Weather History Graph

Daily Weather History Graph

Search for Another Location

Airport or City:

Trip Planner

Search our weather history database for the weather conditions in past years. The results will help you decide how hot, cold, wet, or windy it might be!

Date:

Astronomy

Jan. 18, 2005 Rise Set
Actual Time 7:49 AM EST 5:25 PM EST
Civil Twilight 7:18 AM EST 5:55 PM EST
Nautical Twilight 6:45 AM EST 6:29 PM EST
Astronomical Twilight 6:11 AM EST 7:03 PM EST
Moon 12:17 PM EST (1/18) 2:02 AM EST (1/18)
Length of Visible Light 10h 36m
Length of Day
9h 36m
Waxing Gibbous, 64% of the Moon is Illuminated
Jan 18
Waxing Gibbous
Jan 25
Full
Feb 2
Last Quarter
Feb 8
New
Feb 15
First Quarter

Hourly Weather History & Observations

Time (EST) Temp. Windchill Dew Point Humidity Pressure Visibility Wind Dir Wind Speed Gust Speed Precip Events Conditions
12:53 AM 14.0 °F -1.4 °F -0.0 °F 54% 30.69 in 10.0 mi WNW 15.0 mph 24.2 mph 0.00 in   Overcast
1:30 AM 14.0 °F -2.5 °F 1.4 °F 57% 30.66 in 10.0 mi WNW 17.3 mph - N/A   Mostly Cloudy
1:53 AM 14.0 °F -3.4 °F 1.9 °F 59% 30.70 in 10.0 mi WNW 19.6 mph 24.2 mph N/A   Mostly Cloudy
2:03 AM 14.0 °F -2.0 °F 1.4 °F 57% 30.66 in 10.0 mi WNW 16.1 mph - N/A   Mostly Cloudy
2:42 AM 14.0 °F -1.4 °F 1.4 °F 57% 30.67 in 10.0 mi WNW 15.0 mph - N/A   Mostly Cloudy
2:53 AM 14.0 °F -2.5 °F 1.9 °F 59% 30.70 in 10.0 mi WNW 17.3 mph - N/A   Overcast
3:53 AM 15.1 °F -0.1 °F 3.9 °F 61% 30.71 in 10.0 mi NW 15.0 mph 21.9 mph N/A   Overcast
4:53 AM 15.1 °F -0.1 °F 3.9 °F 61% 30.72 in 10.0 mi NW 15.0 mph - N/A   Overcast
5:53 AM 16.0 °F 2.9 °F 3.0 °F 57% 30.72 in 10.0 mi NW 11.5 mph - N/A   Overcast
6:53 AM 16.0 °F 2.3 °F 3.9 °F 59% 30.75 in 9.0 mi NNW 12.7 mph - 0.00 in Snow Light Snow
7:53 AM 16.0 °F 2.3 °F 3.9 °F 59% 30.77 in 6.0 mi NNW 12.7 mph - 0.00 in Snow Light Snow
8:53 AM 16.0 °F 4.4 °F 3.9 °F 59% 30.79 in 9.0 mi NNW 9.2 mph - 0.00 in   Overcast
9:45 AM 15.8 °F 7.2 °F 1.4 °F 53% 30.78 in 10.0 mi Variable 5.8 mph - 0.00 in   Overcast
9:53 AM 16.0 °F 5.3 °F 3.0 °F 57% 30.81 in 8.0 mi NW 8.1 mph - 0.00 in   Overcast
10:53 AM 16.0 °F 3.6 °F 6.1 °F 65% 30.81 in 7.0 mi SW 10.4 mph - 0.00 in Snow Light Snow
11:37 AM 15.8 °F 2.7 °F 6.8 °F 68% 30.75 in 2.5 mi WSW 11.5 mph - 0.00 in Snow Light Snow
11:44 AM 15.8 °F 1.4 °F 6.8 °F 68% 30.75 in 3.0 mi SW 13.8 mph - 0.00 in Snow Light Snow
11:53 AM 15.1 °F 1.1 °F 7.0 °F 70% 30.79 in 1.5 mi SW 12.7 mph - 0.00 in Snow Light Snow
12:00 PM 15.8 °F 3.4 °F 8.6 °F 73% 30.74 in 0.8 mi SW 10.4 mph - 0.00 in Snow Light Snow
12:09 PM 15.8 °F 4.2 °F 8.6 °F 73% 30.74 in 1.0 mi SW 9.2 mph - 0.00 in Snow Light Snow
12:17 PM 15.8 °F 4.2 °F 8.6 °F 73% 30.73 in 1.5 mi SW 9.2 mph - 0.00 in Snow Light Snow
12:24 PM 17.6 °F 6.4 °F 8.6 °F 68% 30.73 in 2.0 mi SW 9.2 mph - 0.00 in Snow Light Snow
12:37 PM 15.8 °F 5.1 °F 6.8 °F 68% 30.72 in 1.5 mi SW 8.1 mph - 0.00 in Snow Light Snow
12:44 PM 17.6 °F 9.3 °F 6.8 °F 63% 30.72 in 3.0 mi SW 5.8 mph - 0.00 in Snow Light Snow
12:53 PM 16.0 °F 6.3 °F 6.1 °F 65% 30.75 in 8.0 mi SSW 6.9 mph - 0.00 in   Overcast
1:38 PM 17.6 °F 8.2 °F 6.8 °F 63% 30.65 in 2.5 mi SSE 6.9 mph - 0.00 in Snow Light Snow
1:45 PM 17.6 °F 10.7 °F 6.8 °F 63% 30.64 in 1.5 mi Variable 4.6 mph - 0.00 in Snow Light Snow
1:53 PM 18.0 °F 12.7 °F 6.1 °F 60% 30.67 in 10.0 mi SW 3.5 mph - 0.00 in   Overcast
2:20 PM 19.4 °F 10.4 °F 3.2 °F 49% 30.62 in 10.0 mi South 6.9 mph - N/A   Scattered Clouds
2:53 PM 19.9 °F 14.9 °F 5.0 °F 52% 30.67 in 10.0 mi SW 3.5 mph - N/A   Scattered Clouds
3:53 PM 19.0 °F 8.2 °F 3.0 °F 50% 30.68 in 10.0 mi SW 9.2 mph - N/A   Partly Cloudy
4:53 PM 18.0 °F 5.4 °F -0.0 °F 45% 30.63 in 10.0 mi South 11.5 mph - N/A   Clear
5:53 PM 17.1 °F 3.0 °F 1.0 °F 50% 30.60 in 10.0 mi South 13.8 mph 18.4 mph N/A   Clear
6:53 PM 17.1 °F 4.3 °F 1.0 °F 50% 30.59 in 10.0 mi SSE 11.5 mph - N/A   Clear
7:53 PM 17.1 °F 3.0 °F 1.0 °F 50% 30.51 in 10.0 mi SSE 13.8 mph - N/A   Clear
8:53 PM 18.0 °F 6.1 °F 1.9 °F 50% 30.47 in 10.0 mi South 10.4 mph - N/A   Clear
9:53 PM 19.0 °F 3.6 °F 1.0 °F 46% 30.38 in 10.0 mi SSE 18.4 mph 23.0 mph N/A   Overcast
10:53 PM 19.0 °F 2.7 °F 1.9 °F 47% 30.34 in 10.0 mi South 20.7 mph 26.5 mph N/A   Overcast
11:53 PM 19.9 °F 4.8 °F 1.9 °F 46% 30.30 in 10.0 mi South 18.4 mph 27.6 mph N/A   Overcast